Weather in Sofrino

Russia / Moscow Oblast     56°08′22″N   37°55′40″E
temp.,
°C
wind,
m/s
gust,
m/s
humid.,
%
clouds,
%
prec.,
mm/h
press.,
hPa
HPBL,
m
6 march, sat
sat600:00−11nw22910 0.0 101421
03:00−12wnw23930 0.0 101633
06:00−12nw259715 0.0 1015100
09:00−10wnw369445 0.1 1016228
12:00−6wnw358391 0.1 1016806
15:00−6wnw467596 0.5 10151131
18:00−9wnw2389100 0.3 101438
21:00−12wsw239062 0.3 101331
7 march, sun
sun700:00−12ssw389220 0.0 1010174
03:00−9ssw5128857 0.0 1006525
06:00−8ssw61393100 0.9 1001888
09:00−5sw71393100 2.3 9961024
12:00−3sw71393100 1.8 9921103
15:00−6wnw81590100 3.6 991917
18:00−7w5137367 0.1 993621
21:00−8w4118738 0.1 995354
8 march, mon
mon800:00−11wsw259691 0.0 994119
03:00−12wnw239662 0.0 99448
06:00−13wnw349332 0.0 99595
09:00−12nw5119244 0.0 998482
12:00−7nw5886100 0.2 1001913
15:00−7nnw5884100 0.4 1004998
18:00−10nnw4989100 0.1 1007618
21:00−12nnw4109491 0.1 1010393
9 march, tue
tue900:00−16nnw259895 0.1 1012117
03:00−18nnw239994 0.1 101474
06:00−20nnw2510080 0.0 101696
09:00−18nnw359465 0.0 1018225
12:00−14nnw358872 0.0 1018487
15:00−13nnw368285 0.0 1019676
18:00−17n239385 0.0 102053
21:00−22n239543 0.0 102240
10 march, wed
wed1000:00−24nne12960 0.0 102320
03:00−23e119436 0.0 102420
06:00−22se1292100 0.0 102426
09:00−19se2489100 0.0 1023169
12:00−15se3483100 0.0 1024332
15:00−12ese347966 0.0 1023501
18:00−15ese239149 0.0 102357
21:00−18ese369471 0.0 1024135